Time,TemperatureF,DewpointF,PressureIn,WindDirection,WindDirectionDegrees,WindSpeedMPH,WindSpeedGustMPH,Humidity,HourlyPrecipIn,Conditions,Clouds,dailyrainin,SoftwareType,DateUTC
2013-03-27 00:00:00,45.8,20.4,30.28,SSE,159,2.0,4.0,36,0.00,,SKC,0.00,VWS V14.01,2013-03-27 05:00:00,
2013-03-27 00:01:00,45.7,20.3,30.28,SSE,161,2.0,5.0,36,0.00,,SKC,0.00,VWS V14.01,2013-03-27 05:01:00,
2013-03-27 00:02:00,45.7,20.3,30.28,SSE,161,2.0,3.0,36,0.00,,SKC,0.00,VWS V14.01,2013-03-27 05:02:00,
2013-03-27 00:03:00,45.6,20.2,30.28,SSE,161,1.0,3.0,36,0.00,,SKC,0.00,VWS V14.01,2013-03-27 05:03:00,
2013-03-27 00:04:00,45.6,20.2,30.28,SSE,161,2.0,3.0,36,0.00,,SKC,0.00,VWS V14.01,2013-03-27 05:04:00,
2013-03-27 00:05:00,45.6,20.2,30.28,SSE,161,2.0,2.0,36,0.00,,SKC,0.00,VWS V14.01,2013-03-27 05:05:00,
2013-03-27 00:06:00,45.4,20.0,30.28,SSE,161,3.0,4.0,36,0.00,,SKC,0.00,VWS V14.01,2013-03-27 05:06:00,
2013-03-27 00:07:00,45.4,20.0,30.28,SSE,161,3.0,4.0,36,0.00,,SKC,0.00,VWS V14.01,2013-03-27 05:07:00,
2013-03-27 00:08:00,45.3,19.9,30.28,SSE,161,2.0,4.0,36,0.00,,SKC,0.00,VWS V14.01,2013-03-27 05:08:00,
2013-03-27 00:09:00,45.3,19.9,30.28,SSE,161,3.0,3.0,36,0.00,,SKC,0.00,VWS V14.01,2013-03-27 05:09:00,
2013-03-27 00:10:00,45.3,19.9,30.28,SSE,161,2.0,3.0,36,0.00,,SKC,0.00,VWS V14.01,2013-03-27 05:10:00,
2013-03-27 00:11:00,45.2,20.5,30.29,SSE,161,2.0,5.0,37,0.00,,SKC,0.00,VWS V14.01,2013-03-27 05:11:00,
2013-03-27 00:12:00,45.1,20.4,30.29,SSE,161,2.0,4.0,37,0.00,,SKC,0.00,VWS V14.01,2013-03-27 05:12:00,
2013-03-27 00:13:00,45.0,20.3,30.29,SSE,162,2.0,3.0,37,0.00,,SKC,0.00,VWS V14.01,2013-03-27 05:13:00,
2013-03-27 00:14:00,45.0,20.3,30.29,SSE,161,3.0,4.0,37,0.00,,SKC,0.00,VWS V14.01,2013-03-27 05:14:00,
2013-03-27 00:15:00,45.0,20.3,30.29,SSE,161,3.0,4.0,37,0.00,,SKC,0.00,VWS V14.01,2013-03-27 05:15:00,
2013-03-27 00:16:00,45.0,20.3,30.29,SSE,159,6.0,7.0,37,0.00,,SKC,0.00,VWS V14.01,2013-03-27 05:16:00,
2013-03-27 00:17:00,45.0,20.3,30.29,SE,142,5.0,6.0,37,0.00,,SKC,0.00,VWS V14.01,2013-03-27 05:17:00,
2013-03-27 00:18:00,45.0,19.7,30.29,South,178,5.0,10.0,36,0.00,,SKC,0.00,VWS V14.01,2013-03-27 05:18:00,
2013-03-27 00:19:00,45.0,20.3,30.29,SSE,150,8.0,8.0,37,0.00,,SKC,0.00,VWS V14.01,2013-03-27 05:19:00,
2013-03-27 00:20:00,45.0,20.3,30.29,SSE,167,6.0,6.0,37,0.00,,SKC,0.00,VWS V14.01,2013-03-27 05:20:00,
2013-03-27 00:21:00,45.2,20.5,30.29,ESE,115,12.0,12.0,37,0.00,,SKC,0.00,VWS V14.01,2013-03-27 05:21:00,
2013-03-27 00:22:00,45.2,20.5,30.29,SSE,163,3.0,8.0,37,0.00,,SKC,0.00,VWS V14.01,2013-03-27 05:22:00,
2013-03-27 00:23:00,45.2,20.5,30.28,SSE,148,4.0,7.0,37,0.00,,SKC,0.00,VWS V14.01,2013-03-27 05:23:00,
2013-03-27 00:24:00,45.2,20.5,30.28,SSE,167,6.0,6.0,37,0.00,,SKC,0.00,VWS V14.01,2013-03-27 05:24:00,
2013-03-27 00:25:00,45.2,20.5,30.28,SSE,161,3.0,6.0,37,0.00,,SKC,0.00,VWS V14.01,2013-03-27 05:25:00,
2013-03-27 00:26:00,45.3,19.9,30.28,SSE,153,6.0,11.0,36,0.00,,SKC,0.00,VWS V14.01,2013-03-27 05:26:00,
2013-03-27 00:27:00,45.3,20.6,30.28,SE,146,7.0,10.0,37,0.00,,SKC,0.00,VWS V14.01,2013-03-27 05:27:00,
2013-03-27 00:28:00,45.4,20.7,30.28,SSE,163,5.0,9.0,37,0.00,,SKC,0.00,VWS V14.01,2013-03-27 05:28:00,
2013-03-27 00:29:00,45.4,20.7,30.28,SE,137,6.0,10.0,37,0.00,,SKC,0.00,VWS V14.01,2013-03-27 05:29:00,
2013-03-27 00:30:00,45.4,20.7,30.28,SSE,168,7.0,10.0,37,0.00,,SKC,0.00,VWS V14.01,2013-03-27 05:30:00,
2013-03-27 00:31:00,45.6,20.2,30.28,South,186,5.0,10.0,36,0.00,,SKC,0.00,VWS V14.01,2013-03-27 05:31:00,
2013-03-27 00:32:00,45.6,20.9,30.28,SSE,167,6.0,10.0,37,0.00,,SKC,0.00,VWS V14.01,2013-03-27 05:32:00,
2013-03-27 00:33:00,45.6,20.9,30.28,SSE,160,8.0,11.0,37,0.00,,SKC,0.00,VWS V14.01,2013-03-27 05:33:00,
2013-03-27 00:34:00,45.8,20.4,30.28,SSE,161,10.0,13.0,36,0.00,,SKC,0.00,VWS V14.01,2013-03-27 05:34:00,
2013-03-27 00:35:00,45.7,20.3,30.28,South,181,11.0,12.0,36,0.00,,SKC,0.00,VWS V14.01,2013-03-27 05:35:00,
2013-03-27 00:36:00,46.0,20.6,30.28,South,187,7.0,12.0,36,0.00,,SKC,0.00,VWS V14.01,2013-03-27 05:36:00,
2013-03-27 00:37:00,46.1,20.6,30.28,SSE,163,9.0,12.0,36,0.00,,SKC,0.00,VWS V14.01,2013-03-27 05:37:00,
2013-03-27 00:38:00,46.3,20.8,30.28,SSE,163,10.0,11.0,36,0.00,,SKC,0.00,VWS V14.01,2013-03-27 05:38:00,
2013-03-27 00:39:00,46.3,20.8,30.28,SSE,167,7.0,10.0,36,0.00,,SKC,0.00,VWS V14.01,2013-03-27 05:39:00,
2013-03-27 00:40:00,46.3,20.8,30.28,South,176,6.0,10.0,36,0.00,,SKC,0.00,VWS V14.01,2013-03-27 05:40:00,
2013-03-27 00:41:00,46.3,20.8,30.28,SSE,153,5.0,11.0,36,0.00,,SKC,0.00,VWS V14.01,2013-03-27 05:41:00,
2013-03-27 00:42:00,46.3,20.8,30.28,South,184,6.0,10.0,36,0.00,,SKC,0.00,VWS V14.01,2013-03-27 05:42:00,
2013-03-27 00:44:00,46.3,20.8,30.28,SSE,159,5.0,10.0,36,0.00,,SKC,0.00,VWS V14.01,2013-03-27 05:44:00,
2013-03-27 00:45:00,46.3,20.8,30.28,SSE,165,6.0,10.0,36,0.00,,SKC,0.00,VWS V14.01,2013-03-27 05:45:00,
2013-03-27 00:46:00,46.2,20.7,30.28,SSE,160,9.0,12.0,36,0.00,,SKC,0.00,VWS V14.01,2013-03-27 05:46:00,
2013-03-27 00:47:00,46.2,20.7,30.28,SSE,159,7.0,11.0,36,0.00,,SKC,0.00,VWS V14.01,2013-03-27 05:47:00,
2013-03-27 00:48:00,46.3,20.8,30.28,South,191,9.0,9.0,36,0.00,,SKC,0.00,VWS V14.01,2013-03-27 05:48:00,
2013-03-27 00:49:00,46.3,21.5,30.28,South,172,6.0,10.0,37,0.00,,SKC,0.00,VWS V14.01,2013-03-27 05:49:00,
2013-03-27 00:50:00,46.3,21.5,30.28,South,170,5.0,10.0,37,0.00,,SKC,0.00,VWS V14.01,2013-03-27 05:50:00,
2013-03-27 00:51:00,46.2,21.4,30.28,SSE,148,6.0,9.0,37,0.00,,SKC,0.00,VWS V14.01,2013-03-27 05:51:00,
2013-03-27 00:52:00,46.2,21.4,30.28,SSE,163,4.0,7.0,37,0.00,,SKC,0.00,VWS V14.01,2013-03-27 05:52:00,
2013-03-27 00:53:00,46.1,21.3,30.28,SSE,149,9.0,10.0,37,0.00,,SKC,0.00,VWS V14.01,2013-03-27 05:53:00,
2013-03-27 00:54:00,46.1,21.3,30.28,SSE,167,4.0,12.0,37,0.00,,SKC,0.00,VWS V14.01,2013-03-27 05:54:00,
2013-03-27 00:55:00,46.1,21.3,30.28,South,188,9.0,12.0,37,0.00,,SKC,0.00,VWS V14.01,2013-03-27 05:55:00,
2013-03-27 00:56:00,46.1,21.3,30.28,ESE,123,10.0,11.0,37,0.00,,SKC,0.00,VWS V14.01,2013-03-27 05:56:00,
2013-03-27 00:57:00,46.1,21.9,30.28,SSE,160,5.0,13.0,38,0.00,,SKC,0.00,VWS V14.01,2013-03-27 05:57:00,
2013-03-27 00:58:00,46.1,21.9,30.28,SSE,168,9.0,9.0,38,0.00,,SKC,0.00,VWS V14.01,2013-03-27 05:58:00,
2013-03-27 00:59:00,46.1,21.9,30.28,SSE,160,9.0,9.0,38,0.00,,SKC,0.00,VWS V14.01,2013-03-27 05:59:00,
2013-03-27 01:00:00,46.1,21.9,30.28,South,187,7.0,9.0,38,0.00,,SKC,0.00,VWS V14.01,2013-03-27 06:00:00,
2013-03-27 01:01:00,46.0,21.8,30.28,South,188,11.0,13.0,38,0.00,,SKC,0.00,VWS V14.01,2013-03-27 06:01:00,
2013-03-27 01:02:00,46.1,22.5,30.28,SE,140,10.0,12.0,39,0.00,,SKC,0.00,VWS V14.01,2013-03-27 06:02:00,
2013-03-27 01:03:00,46.1,22.5,30.28,SSE,162,6.0,11.0,39,0.00,,SKC,0.00,VWS V14.01,2013-03-27 06:03:00,
2013-03-27 01:04:00,46.1,22.5,30.28,SSE,164,11.0,12.0,39,0.00,,SKC,0.00,VWS V14.01,2013-03-27 06:04:00,
2013-03-27 01:05:00,46.1,22.5,30.28,South,180,6.0,7.0,39,0.00,,SKC,0.00,VWS V14.01,2013-03-27 06:05:00,
2013-03-27 01:06:00,46.1,22.5,30.28,South,182,6.0,13.0,39,0.00,,SKC,0.00,VWS V14.01,2013-03-27 06:06:00,
2013-03-27 01:07:00,46.1,22.5,30.27,SSE,163,9.0,16.0,39,0.00,,SKC,0.00,VWS V14.01,2013-03-27 06:07:00,
2013-03-27 01:08:00,46.1,23.1,30.27,SSE,157,11.0,15.0,40,0.00,,SKC,0.00,VWS V14.01,2013-03-27 06:08:00,
2013-03-27 01:09:00,46.1,23.1,30.27,South,172,6.0,11.0,40,0.00,,SKC,0.00,VWS V14.01,2013-03-27 06:09:00,
2013-03-27 01:10:00,46.1,23.1,30.27,South,183,9.0,11.0,40,0.00,,SKC,0.00,VWS V14.01,2013-03-27 06:10:00,
2013-03-27 01:11:00,46.2,23.2,30.27,South,187,7.0,13.0,40,0.00,,SKC,0.00,VWS V14.01,2013-03-27 06:11:00,
2013-03-27 01:12:00,46.1,23.1,30.27,South,169,10.0,12.0,40,0.00,,SKC,0.00,VWS V14.01,2013-03-27 06:12:00,
2013-03-27 01:13:00,46.1,23.1,30.27,South,175,11.0,11.0,40,0.00,,SKC,0.00,VWS V14.01,2013-03-27 06:13:00,
2013-03-27 01:14:00,46.1,23.7,30.27,South,177,10.0,16.0,41,0.00,,SKC,0.00,VWS V14.01,2013-03-27 06:14:00,
2013-03-27 01:15:00,46.1,23.7,30.27,South,180,7.0,16.0,41,0.00,,SKC,0.00,VWS V14.01,2013-03-27 06:15:00,
2013-03-27 01:16:00,46.0,23.6,30.27,South,172,5.0,14.0,41,0.00,,SKC,0.00,VWS V14.01,2013-03-27 06:16:00,
2013-03-27 01:17:00,46.0,23.6,30.27,SSE,161,6.0,13.0,41,0.00,,SKC,0.00,VWS V14.01,2013-03-27 06:17:00,
2013-03-27 01:18:00,46.0,23.6,30.27,SSE,168,10.0,11.0,41,0.00,,SKC,0.00,VWS V14.01,2013-03-27 06:18:00,
2013-03-27 01:19:00,45.9,23.5,30.26,South,178,8.0,13.0,41,0.00,,SKC,0.00,VWS V14.01,2013-03-27 06:19:00,
2013-03-27 01:20:00,45.9,23.5,30.27,SE,140,13.0,13.0,41,0.00,,SKC,0.00,VWS V14.01,2013-03-27 06:20:00,
2013-03-27 01:21:00,45.8,24.0,30.26,SSE,168,5.0,11.0,42,0.00,,SKC,0.00,VWS V14.01,2013-03-27 06:21:00,
2013-03-27 01:22:00,45.8,24.0,30.26,SSW,192,4.0,11.0,42,0.00,,SKC,0.00,VWS V14.01,2013-03-27 06:22:00,
2013-03-27 01:23:00,45.7,23.9,30.26,South,186,7.0,13.0,42,0.00,,SKC,0.00,VWS V14.01,2013-03-27 06:23:00,
2013-03-27 01:24:00,45.7,23.9,30.26,South,188,7.0,10.0,42,0.00,,SKC,0.00,VWS V14.01,2013-03-27 06:24:00,
2013-03-27 01:25:00,45.7,23.9,30.26,South,175,6.0,10.0,42,0.00,,SKC,0.00,VWS V14.01,2013-03-27 06:25:00,
2013-03-27 01:26:00,45.6,24.4,30.26,South,182,6.0,10.0,43,0.00,,SKC,0.00,VWS V14.01,2013-03-27 06:26:00,
2013-03-27 01:27:00,45.5,24.3,30.26,SSE,167,5.0,10.0,43,0.00,,SKC,0.00,VWS V14.01,2013-03-27 06:27:00,
2013-03-27 01:28:00,45.5,24.3,30.26,SSE,167,4.0,9.0,43,0.00,,SKC,0.00,VWS V14.01,2013-03-27 06:28:00,
2013-03-27 01:29:00,45.4,24.2,30.26,SSE,148,4.0,10.0,43,0.00,,SKC,0.00,VWS V14.01,2013-03-27 06:29:00,
2013-03-27 01:30:00,45.4,24.2,30.26,South,177,7.0,10.0,43,0.00,,SKC,0.00,VWS V14.01,2013-03-27 06:30:00,
2013-03-27 01:31:00,45.3,24.1,30.26,SSE,164,3.0,6.0,43,0.00,,SKC,0.00,VWS V14.01,2013-03-27 06:31:00,
2013-03-27 01:32:00,45.3,24.1,30.26,SE,146,5.0,9.0,43,0.00,,SKC,0.00,VWS V14.01,2013-03-27 06:32:00,
2013-03-27 01:33:00,45.2,24.6,30.26,SSE,165,5.0,9.0,44,0.00,,SKC,0.00,VWS V14.01,2013-03-27 06:33:00,
2013-03-27 01:34:00,45.1,24.5,30.26,South,174,4.0,7.0,44,0.00,,SKC,0.00,VWS V14.01,2013-03-27 06:34:00,
2013-03-27 01:35:00,45.2,24.6,30.26,SSE,168,5.0,7.0,44,0.00,,SKC,0.00,VWS V14.01,2013-03-27 06:35:00,
2013-03-27 01:36:00,45.0,24.4,30.26,SSE,154,4.0,7.0,44,0.00,,SKC,0.00,VWS V14.01,2013-03-27 06:36:00,
2013-03-27 01:37:00,45.0,24.4,30.26,SSE,166,3.0,7.0,44,0.00,,SKC,0.00,VWS V14.01,2013-03-27 06:37:00,
2013-03-27 01:38:00,45.0,24.4,30.26,SE,141,4.0,8.0,44,0.00,,SKC,0.00,VWS V14.01,2013-03-27 06:38:00,
2013-03-27 01:39:00,44.9,24.3,30.26,SSE,167,6.0,8.0,44,0.00,,SKC,0.00,VWS V14.01,2013-03-27 06:39:00,
2013-03-27 01:40:00,44.9,24.3,30.26,South,172,5.0,8.0,44,0.00,,SKC,0.00,VWS V14.01,2013-03-27 06:40:00,
2013-03-27 01:41:00,44.7,24.1,30.26,SSE,167,5.0,7.0,44,0.00,,SKC,0.00,VWS V14.01,2013-03-27 06:41:00,
2013-03-27 01:42:00,44.7,24.7,30.26,SSE,157,4.0,9.0,45,0.00,,SKC,0.00,VWS V14.01,2013-03-27 06:42:00,
2013-03-27 01:43:00,44.7,24.7,30.26,South,170,5.0,7.0,45,0.00,,SKC,0.00,VWS V14.01,2013-03-27 06:43:00,
2013-03-27 01:44:00,44.6,24.6,30.26,SSE,163,8.0,9.0,45,0.00,,SKC,0.00,VWS V14.01,2013-03-27 06:44:00,
2013-03-27 01:45:00,44.6,24.6,30.26,South,176,5.0,8.0,45,0.00,,SKC,0.00,VWS V14.01,2013-03-27 06:45:00,
2013-03-27 01:46:00,44.5,24.5,30.26,South,171,6.0,9.0,45,0.00,,SKC,0.00,VWS V14.01,2013-03-27 06:46:00,
2013-03-27 01:47:00,44.5,24.5,30.26,SSE,165,4.0,6.0,45,0.00,,SKC,0.00,VWS V14.01,2013-03-27 06:47:00,
2013-03-27 01:48:00,44.4,24.4,30.26,SSE,163,5.0,6.0,45,0.00,,SKC,0.00,VWS V14.01,2013-03-27 06:48:00,
2013-03-27 01:49:00,44.4,24.4,30.26,South,187,5.0,10.0,45,0.00,,SKC,0.00,VWS V14.01,2013-03-27 06:49:00,
2013-03-27 01:50:00,44.4,24.4,30.26,SSE,157,10.0,10.0,45,0.00,,SKC,0.00,VWS V14.01,2013-03-27 06:50:00,
2013-03-27 01:51:00,44.3,24.3,30.26,SSE,163,4.0,6.0,45,0.00,,SKC,0.00,VWS V14.01,2013-03-27 06:51:00,
2013-03-27 01:52:00,44.2,24.2,30.26,South,175,6.0,10.0,45,0.00,,SKC,0.00,VWS V14.01,2013-03-27 06:52:00,
2013-03-27 01:53:00,44.2,24.2,30.26,SSE,163,9.0,9.0,45,0.00,,SKC,0.00,VWS V14.01,2013-03-27 06:53:00,
2013-03-27 01:54:00,44.2,24.8,30.26,South,173,3.0,9.0,46,0.00,,SKC,0.00,VWS V14.01,2013-03-27 06:54:00,
2013-03-27 01:55:00,44.2,24.8,30.26,South,173,3.0,9.0,46,0.00,,SKC,0.00,VWS V14.01,2013-03-27 06:55:00,
2013-03-27 01:56:00,44.0,24.6,30.26,South,174,4.0,7.0,46,0.00,,SKC,0.00,VWS V14.01,2013-03-27 06:56:00,
2013-03-27 01:57:00,44.0,24.6,30.26,SSE,155,6.0,9.0,46,0.00,,SKC,0.00,VWS V14.01,2013-03-27 06:57:00,
2013-03-27 01:58:00,43.9,24.5,30.26,SE,145,5.0,6.0,46,0.00,,SKC,0.00,VWS V14.01,2013-03-27 06:58:00,
2013-03-27 01:59:00,43.8,25.4,30.26,SSE,149,2.0,5.0,48,0.00,,SKC,0.00,VWS V14.01,2013-03-27 06:59:00,
2013-03-27 02:00:00,43.8,25.4,30.26,SSE,149,4.0,5.0,48,0.00,,SKC,0.00,VWS V14.01,2013-03-27 07:00:00,
2013-03-27 02:01:00,43.7,24.3,30.26,SSE,159,4.0,10.0,46,0.00,,SKC,0.00,VWS V14.01,2013-03-27 07:01:00,
2013-03-27 02:02:00,43.7,24.3,30.26,SSE,167,6.0,9.0,46,0.00,,SKC,0.00,VWS V14.01,2013-03-27 07:02:00,
2013-03-27 02:03:00,43.6,24.7,30.26,South,172,3.0,6.0,47,0.00,,SKC,0.00,VWS V14.01,2013-03-27 07:03:00,
2013-03-27 02:04:00,43.6,24.7,30.26,SSE,160,5.0,6.0,47,0.00,,SKC,0.00,VWS V14.01,2013-03-27 07:04:00,
2013-03-27 02:05:00,43.6,24.7,30.26,South,174,4.0,6.0,47,0.00,,SKC,0.00,VWS V14.01,2013-03-27 07:05:00,
2013-03-27 02:06:00,43.4,24.5,30.25,South,176,6.0,6.0,47,0.00,,SKC,0.00,VWS V14.01,2013-03-27 07:06:00,
2013-03-27 02:07:00,43.4,24.5,30.26,SSE,159,5.0,7.0,47,0.00,,SKC,0.00,VWS V14.01,2013-03-27 07:07:00,
2013-03-27 02:08:00,43.3,24.4,30.26,SSE,165,6.0,7.0,47,0.00,,SKC,0.00,VWS V14.01,2013-03-27 07:08:00,
2013-03-27 02:09:00,43.3,24.4,30.25,South,172,2.0,9.0,47,0.00,,SKC,0.00,VWS V14.01,2013-03-27 07:09:00,
2013-03-27 02:10:00,43.3,24.4,30.25,South,172,4.0,9.0,47,0.00,,SKC,0.00,VWS V14.01,2013-03-27 07:10:00,
2013-03-27 02:11:00,43.1,24.8,30.25,SSE,164,3.0,5.0,48,0.00,,SKC,0.00,VWS V14.01,2013-03-27 07:11:00,
2013-03-27 02:12:00,43.1,24.8,30.25,South,169,3.0,5.0,48,0.00,,SKC,0.00,VWS V14.01,2013-03-27 07:12:00,
2013-03-27 02:13:00,43.1,24.8,30.25,South,183,6.0,9.0,48,0.00,,SKC,0.00,VWS V14.01,2013-03-27 07:13:00,
2013-03-27 02:14:00,43.1,24.8,30.25,South,173,4.0,7.0,48,0.00,,SKC,0.00,VWS V14.01,2013-03-27 07:14:00,
2013-03-27 02:15:00,43.1,24.8,30.25,South,176,3.0,7.0,48,0.00,,SKC,0.00,VWS V14.01,2013-03-27 07:15:00,
2013-03-27 02:16:00,43.0,24.7,30.25,SSE,159,5.0,9.0,48,0.00,,SKC,0.00,VWS V14.01,2013-03-27 07:16:00,
2013-03-27 02:17:00,43.0,25.2,30.25,SSE,159,6.0,7.0,49,0.00,,SKC,0.00,VWS V14.01,2013-03-27 07:17:00,
2013-03-27 02:18:00,43.0,25.2,30.26,South,180,5.0,9.0,49,0.00,,SKC,0.00,VWS V14.01,2013-03-27 07:18:00,
2013-03-27 02:19:00,42.9,25.1,30.25,South,179,4.0,5.0,49,0.00,,SKC,0.00,VWS V14.01,2013-03-27 07:19:00,
2013-03-27 02:20:00,42.9,25.1,30.25,South,180,4.0,5.0,49,0.00,,SKC,0.00,VWS V14.01,2013-03-27 07:20:00,
2013-03-27 02:21:00,42.8,25.0,30.25,South,184,5.0,6.0,49,0.00,,SKC,0.00,VWS V14.01,2013-03-27 07:21:00,
2013-03-27 02:22:00,42.8,25.0,30.25,South,169,7.0,8.0,49,0.00,,SKC,0.00,VWS V14.01,2013-03-27 07:22:00,
2013-03-27 02:23:00,42.7,24.9,30.25,SSE,167,4.0,7.0,49,0.00,,SKC,0.00,VWS V14.01,2013-03-27 07:23:00,
2013-03-27 02:24:00,42.7,24.9,30.26,SSE,163,5.0,6.0,49,0.00,,SKC,0.00,VWS V14.01,2013-03-27 07:24:00,
2013-03-27 02:25:00,42.7,24.9,30.26,SSE,163,5.0,6.0,49,0.00,,SKC,0.00,VWS V14.01,2013-03-27 07:25:00,
2013-03-27 02:26:00,42.6,25.3,30.25,South,173,3.0,4.0,50,0.00,,SKC,0.00,VWS V14.01,2013-03-27 07:26:00,
2013-03-27 02:27:00,42.6,25.3,30.25,South,169,3.0,6.0,50,0.00,,SKC,0.00,VWS V14.01,2013-03-27 07:27:00,
2013-03-27 02:28:00,42.5,25.2,30.25,SSE,165,3.0,7.0,50,0.00,,SKC,0.00,VWS V14.01,2013-03-27 07:28:00,
2013-03-27 02:29:00,42.5,25.2,30.25,South,174,4.0,7.0,50,0.00,,SKC,0.00,VWS V14.01,2013-03-27 07:29:00,
2013-03-27 02:30:00,42.5,25.2,30.25,South,175,4.0,7.0,50,0.00,,SKC,0.00,VWS V14.01,2013-03-27 07:30:00,
2013-03-27 02:31:00,42.5,25.7,30.25,South,182,5.0,7.0,51,0.00,,SKC,0.00,VWS V14.01,2013-03-27 07:31:00,
2013-03-27 02:32:00,42.5,25.7,30.25,South,181,3.0,5.0,51,0.00,,SKC,0.00,VWS V14.01,2013-03-27 07:32:00,
2013-03-27 02:33:00,42.4,25.6,30.25,South,180,4.0,6.0,51,0.00,,SKC,0.00,VWS V14.01,2013-03-27 07:33:00,
2013-03-27 02:34:00,42.5,25.7,30.25,South,181,3.0,6.0,51,0.00,,SKC,0.00,VWS V14.01,2013-03-27 07:34:00,
2013-03-27 02:35:00,42.5,25.7,30.25,South,181,4.0,6.0,51,0.00,,SKC,0.00,VWS V14.01,2013-03-27 07:35:00,
2013-03-27 02:36:00,42.5,26.1,30.25,South,178,5.0,8.0,52,0.00,,SKC,0.00,VWS V14.01,2013-03-27 07:36:00,
2013-03-27 02:37:00,42.5,26.1,30.25,South,189,7.0,8.0,52,0.00,,SKC,0.00,VWS V14.01,2013-03-27 07:37:00,
2013-03-27 02:38:00,42.6,26.2,30.25,South,189,5.0,9.0,52,0.00,,SKC,0.00,VWS V14.01,2013-03-27 07:38:00,
2013-03-27 02:39:00,42.6,26.2,30.25,South,178,6.0,6.0,52,0.00,,SKC,0.00,VWS V14.01,2013-03-27 07:39:00,
2013-03-27 02:40:00,42.6,26.2,30.25,South,175,5.0,5.0,52,0.00,,SKC,0.00,VWS V14.01,2013-03-27 07:40:00,
2013-03-27 02:41:00,42.6,26.2,30.25,SSE,161,4.0,9.0,52,0.00,,SKC,0.00,VWS V14.01,2013-03-27 07:41:00,
2013-03-27 02:42:00,42.6,26.7,30.25,South,176,6.0,9.0,53,0.00,,SKC,0.00,VWS V14.01,2013-03-27 07:42:00,
2013-03-27 02:43:00,42.6,26.7,30.25,South,169,5.0,9.0,53,0.00,,SKC,0.00,VWS V14.01,2013-03-27 07:43:00,
2013-03-27 02:44:00,42.7,26.3,30.25,South,181,5.0,7.0,52,0.00,,SKC,0.00,VWS V14.01,2013-03-27 07:44:00,
2013-03-27 02:45:00,42.7,26.3,30.25,South,191,7.0,7.0,52,0.00,,SKC,0.00,VWS V14.01,2013-03-27 07:45:00,
2013-03-27 02:46:00,42.7,26.8,30.25,SSE,157,4.0,7.0,53,0.00,,SKC,0.00,VWS V14.01,2013-03-27 07:46:00,
2013-03-27 02:47:00,42.7,26.8,30.25,South,183,5.0,11.0,53,0.00,,SKC,0.00,VWS V14.01,2013-03-27 07:47:00,
2013-03-27 02:48:00,42.7,26.8,30.25,South,186,5.0,7.0,53,0.00,,SKC,0.00,VWS V14.01,2013-03-27 07:48:00,
2013-03-27 02:49:00,42.7,26.8,30.25,SSE,164,4.0,5.0,53,0.00,,SKC,0.00,VWS V14.01,2013-03-27 07:49:00,
2013-03-27 02:50:00,42.7,26.8,30.25,SSE,159,4.0,5.0,53,0.00,,SKC,0.00,VWS V14.01,2013-03-27 07:50:00,
2013-03-27 02:51:00,42.7,26.8,30.24,South,179,10.0,10.0,53,0.00,,SKC,0.00,VWS V14.01,2013-03-27 07:51:00,
2013-03-27 02:52:00,42.7,27.2,30.24,South,180,5.0,10.0,54,0.00,,SKC,0.00,VWS V14.01,2013-03-27 07:52:00,
2013-03-27 02:53:00,42.6,27.1,30.24,South,178,4.0,6.0,54,0.00,,SKC,0.00,VWS V14.01,2013-03-27 07:53:00,
2013-03-27 02:54:00,42.6,27.1,30.25,South,182,4.0,7.0,54,0.00,,SKC,0.00,VWS V14.01,2013-03-27 07:54:00,
2013-03-27 02:55:00,42.6,27.1,30.25,South,182,4.0,7.0,54,0.00,,SKC,0.00,VWS V14.01,2013-03-27 07:55:00,
2013-03-27 02:56:00,42.6,27.1,30.25,South,178,4.0,7.0,54,0.00,,SKC,0.00,VWS V14.01,2013-03-27 07:56:00,
2013-03-27 02:57:00,42.6,27.1,30.24,SSW,192,4.0,7.0,54,0.00,,SKC,0.00,VWS V14.01,2013-03-27 07:57:00,
2013-03-27 02:58:00,42.6,27.1,30.24,South,172,4.0,6.0,54,0.00,,SKC,0.00,VWS V14.01,2013-03-27 07:58:00,
2013-03-27 02:59:00,42.6,27.1,30.25,South,172,4.0,9.0,54,0.00,,SKC,0.00,VWS V14.01,2013-03-27 07:59:00,
2013-03-27 03:00:00,42.6,27.1,30.25,SSE,163,4.0,9.0,54,0.00,,SKC,0.00,VWS V14.01,2013-03-27 08:00:00,
2013-03-27 03:01:00,42.7,27.2,30.24,South,169,4.0,9.0,54,0.00,,SKC,0.00,VWS V14.01,2013-03-27 08:01:00,
2013-03-27 03:02:00,42.7,27.2,30.24,South,174,7.0,7.0,54,0.00,,SKC,0.00,VWS V14.01,2013-03-27 08:02:00,
2013-03-27 03:03:00,42.7,27.2,30.24,South,175,4.0,10.0,54,0.00,,SKC,0.00,VWS V14.01,2013-03-27 08:03:00,
2013-03-27 03:04:00,42.7,27.7,30.24,SSW,195,6.0,6.0,55,0.00,,SKC,0.00,VWS V14.01,2013-03-27 08:04:00,
2013-03-27 03:05:00,42.7,27.7,30.24,SSW,194,6.0,6.0,55,0.00,,SKC,0.00,VWS V14.01,2013-03-27 08:05:00,
2013-03-27 03:06:00,42.7,27.7,30.24,South,184,5.0,6.0,55,0.00,,SKC,0.00,VWS V14.01,2013-03-27 08:06:00,
2013-03-27 03:07:00,42.7,27.7,30.24,South,184,6.0,9.0,55,0.00,,SKC,0.00,VWS V14.01,2013-03-27 08:07:00,
2013-03-27 03:08:00,42.7,27.7,30.24,SSW,192,8.0,8.0,55,0.00,,SKC,0.00,VWS V14.01,2013-03-27 08:08:00,
2013-03-27 03:09:00,42.7,27.7,30.24,SSE,165,4.0,12.0,55,0.00,,SKC,0.00,VWS V14.01,2013-03-27 08:09:00,
2013-03-27 03:10:00,42.7,27.7,30.24,SSE,163,4.0,12.0,55,0.00,,SKC,0.00,VWS V14.01,2013-03-27 08:10:00,
2013-03-27 03:11:00,42.8,27.8,30.24,South,188,4.0,7.0,55,0.00,,SKC,0.00,VWS V14.01,2013-03-27 08:11:00,
2013-03-27 03:12:00,42.8,27.8,30.24,South,178,4.0,11.0,55,0.00,,SKC,0.00,VWS V14.01,2013-03-27 08:12:00,
2013-03-27 03:13:00,42.8,27.8,30.24,South,179,4.0,7.0,55,0.00,,SKC,0.00,VWS V14.01,2013-03-27 08:13:00,
2013-03-27 03:14:00,42.8,27.8,30.24,SSE,168,8.0,8.0,55,0.00,,SKC,0.00,VWS V14.01,2013-03-27 08:14:00,
2013-03-27 03:15:00,42.8,27.8,30.24,South,187,7.0,7.0,55,0.00,,SKC,0.00,VWS V14.01,2013-03-27 08:15:00,
2013-03-27 03:16:00,42.8,28.2,30.24,South,189,7.0,7.0,56,0.00,,SKC,0.00,VWS V14.01,2013-03-27 08:16:00,
2013-03-27 03:17:00,42.8,28.2,30.24,South,188,7.0,9.0,56,0.00,,SKC,0.00,VWS V14.01,2013-03-27 08:17:00,
2013-03-27 03:18:00,42.8,28.2,30.24,South,184,7.0,11.0,56,0.00,,SKC,0.00,VWS V14.01,2013-03-27 08:18:00,
2013-03-27 03:19:00,42.8,28.2,30.24,South,182,11.0,11.0,56,0.00,,SKC,0.00,VWS V14.01,2013-03-27 08:19:00,
2013-03-27 03:20:00,42.8,28.2,30.24,SSW,195,7.0,11.0,56,0.00,,SKC,0.00,VWS V14.01,2013-03-27 08:20:00,
2013-03-27 03:21:00,42.8,28.2,30.24,SSW,199,5.0,10.0,56,0.00,,SKC,0.00,VWS V14.01,2013-03-27 08:21:00,
2013-03-27 03:22:00,42.8,28.2,30.24,South,171,5.0,10.0,56,0.00,,SKC,0.00,VWS V14.01,2013-03-27 08:22:00,
2013-03-27 03:23:00,42.8,28.2,30.24,South,188,6.0,11.0,56,0.00,,SKC,0.00,VWS V14.01,2013-03-27 08:23:00,
2013-03-27 03:24:00,42.9,28.3,30.24,SSW,193,6.0,8.0,56,0.00,,SKC,0.00,VWS V14.01,2013-03-27 08:24:00,
2013-03-27 03:25:00,42.9,28.3,30.24,SSW,192,8.0,8.0,56,0.00,,SKC,0.00,VWS V14.01,2013-03-27 08:25:00,
2013-03-27 03:26:00,42.8,28.2,30.24,South,170,4.0,10.0,56,0.00,,SKC,0.00,VWS V14.01,2013-03-27 08:26:00,
2013-03-27 03:27:00,42.8,28.2,30.24,SSW,195,6.0,9.0,56,0.00,,SKC,0.00,VWS V14.01,2013-03-27 08:27:00,
2013-03-27 03:28:00,42.8,28.2,30.24,South,172,3.0,9.0,56,0.00,,SKC,0.00,VWS V14.01,2013-03-27 08:28:00,
2013-03-27 03:29:00,42.7,28.1,30.24,South,180,6.0,9.0,56,0.00,,SKC,0.00,VWS V14.01,2013-03-27 08:29:00,
2013-03-27 03:30:00,42.7,28.1,30.24,South,180,6.0,9.0,56,0.00,,SKC,0.00,VWS V14.01,2013-03-27 08:30:00,
2013-03-27 03:31:00,42.7,28.1,30.24,South,181,5.0,6.0,56,0.00,,SKC,0.00,VWS V14.01,2013-03-27 08:31:00,
2013-03-27 03:32:00,42.7,28.1,30.24,South,183,4.0,11.0,56,0.00,,SKC,0.00,VWS V14.01,2013-03-27 08:32:00,
2013-03-27 03:33:00,42.7,28.1,30.24,South,182,3.0,7.0,56,0.00,,SKC,0.00,VWS V14.01,2013-03-27 08:33:00,
2013-03-27 03:34:00,42.6,28.0,30.24,South,182,7.0,7.0,56,0.00,,SKC,0.00,VWS V14.01,2013-03-27 08:34:00,
2013-03-27 03:35:00,42.6,28.0,30.24,South,183,5.0,7.0,56,0.00,,SKC,0.00,VWS V14.01,2013-03-27 08:35:00,
2013-03-27 03:36:00,42.6,28.5,30.24,South,179,3.0,9.0,57,0.00,,SKC,0.00,VWS V14.01,2013-03-27 08:36:00,
2013-03-27 03:37:00,42.6,28.5,30.24,South,180,4.0,7.0,57,0.00,,SKC,0.00,VWS V14.01,2013-03-27 08:37:00,
2013-03-27 03:38:00,42.5,28.4,30.24,South,169,5.0,7.0,57,0.00,,SKC,0.00,VWS V14.01,2013-03-27 08:38:00,
2013-03-27 03:39:00,42.5,28.4,30.24,South,173,4.0,6.0,57,0.00,,SKC,0.00,VWS V14.01,2013-03-27 08:39:00,
2013-03-27 03:40:00,42.5,28.4,30.24,South,173,4.0,6.0,57,0.00,,SKC,0.00,VWS V14.01,2013-03-27 08:40:00,
2013-03-27 03:41:00,42.4,28.3,30.24,South,180,6.0,6.0,57,0.00,,SKC,0.00,VWS V14.01,2013-03-27 08:41:00,
2013-03-27 03:42:00,42.3,28.2,30.24,South,182,6.0,7.0,57,0.00,,SKC,0.00,VWS V14.01,2013-03-27 08:42:00,
2013-03-27 03:43:00,42.3,28.2,30.23,South,180,4.0,7.0,57,0.00,,SKC,0.00,VWS V14.01,2013-03-27 08:43:00,
2013-03-27 03:44:00,42.2,28.1,30.23,South,188,10.0,10.0,57,0.00,,SKC,0.00,VWS V14.01,2013-03-27 08:44:00,
2013-03-27 03:45:00,42.2,28.1,30.23,South,190,9.0,9.0,57,0.00,,SKC,0.00,VWS V14.01,2013-03-27 08:45:00,
2013-03-27 03:46:00,42.3,28.6,30.23,South,175,4.0,8.0,58,0.00,,SKC,0.00,VWS V14.01,2013-03-27 08:46:00,
2013-03-27 03:47:00,42.2,28.5,30.23,SSW,192,6.0,7.0,58,0.00,,SKC,0.00,VWS V14.01,2013-03-27 08:47:00,
2013-03-27 03:48:00,42.2,28.1,30.23,South,183,4.0,10.0,57,0.00,,SKC,0.00,VWS V14.01,2013-03-27 08:48:00,
2013-03-27 03:49:00,42.2,28.5,30.23,South,188,7.0,8.0,58,0.00,,SKC,0.00,VWS V14.01,2013-03-27 08:49:00,
2013-03-27 03:50:00,42.2,28.5,30.23,South,188,7.0,8.0,58,0.00,,SKC,0.00,VWS V14.01,2013-03-27 08:50:00,
2013-03-27 03:51:00,42.1,28.4,30.23,South,188,8.0,9.0,58,0.00,,SKC,0.00,VWS V14.01,2013-03-27 08:51:00,
2013-03-27 03:52:00,42.1,28.4,30.23,South,188,4.0,10.0,58,0.00,,SKC,0.00,VWS V14.01,2013-03-27 08:52:00,
2013-03-27 03:53:00,42.1,28.4,30.23,South,187,6.0,10.0,58,0.00,,SKC,0.00,VWS V14.01,2013-03-27 08:53:00,
2013-03-27 03:54:00,42.1,28.4,30.23,SSW,192,7.0,10.0,58,0.00,,SKC,0.00,VWS V14.01,2013-03-27 08:54:00,
2013-03-27 03:55:00,42.1,28.4,30.23,South,191,7.0,10.0,58,0.00,,SKC,0.00,VWS V14.01,2013-03-27 08:55:00,
2013-03-27 03:56:00,42.1,28.4,30.23,SSW,203,11.0,14.0,58,0.00,,SKC,0.00,VWS V14.01,2013-03-27 08:56:00,
2013-03-27 03:57:00,42.2,28.5,30.23,South,184,3.0,11.0,58,0.00,,SKC,0.00,VWS V14.01,2013-03-27 08:57:00,
2013-03-27 03:58:00,42.2,28.5,30.23,South,182,9.0,10.0,58,0.00,,SKC,0.00,VWS V14.01,2013-03-27 08:58:00,
2013-03-27 03:59:00,42.2,28.5,30.23,South,183,9.0,11.0,58,0.00,,SKC,0.00,VWS V14.01,2013-03-27 08:59:00,
2013-03-27 04:00:00,42.2,28.5,30.23,South,187,6.0,11.0,58,0.00,,SKC,0.00,VWS V14.01,2013-03-27 09:00:00,
2013-03-27 04:01:00,42.3,28.6,30.23,South,182,3.0,10.0,58,0.00,,SKC,0.00,VWS V14.01,2013-03-27 09:01:00,
2013-03-27 04:02:00,42.3,28.6,30.23,South,190,6.0,9.0,58,0.00,,SKC,0.00,VWS V14.01,2013-03-27 09:02:00,
2013-03-27 04:03:00,42.3,28.6,30.23,SSW,196,5.0,9.0,58,0.00,,SKC,0.00,VWS V14.01,2013-03-27 09:03:00,
2013-03-27 04:04:00,42.3,28.6,30.23,South,173,5.0,7.0,58,0.00,,SKC,0.00,VWS V14.01,2013-03-27 09:04:00,
2013-03-27 04:05:00,42.3,28.6,30.23,South,176,3.0,7.0,58,0.00,,SKC,0.00,VWS V14.01,2013-03-27 09:05:00,
2013-03-27 04:06:00,42.3,28.6,30.23,South,184,4.0,9.0,58,0.00,,SKC,0.00,VWS V14.01,2013-03-27 09:06:00,
2013-03-27 04:07:00,42.2,28.5,30.23,South,184,5.0,7.0,58,0.00,,SKC,0.00,VWS V14.01,2013-03-27 09:07:00,
2013-03-27 04:08:00,42.2,28.5,30.23,South,185,3.0,7.0,58,0.00,,SKC,0.00,VWS V14.01,2013-03-27 09:08:00,
2013-03-27 04:09:00,42.2,28.5,30.23,South,187,5.0,7.0,58,0.00,,SKC,0.00,VWS V14.01,2013-03-27 09:09:00,
2013-03-27 04:10:00,42.2,28.5,30.23,South,188,6.0,7.0,58,0.00,,SKC,0.00,VWS V14.01,2013-03-27 09:10:00,
2013-03-27 04:11:00,42.2,28.5,30.23,SSE,168,4.0,7.0,58,0.00,,SKC,0.00,VWS V14.01,2013-03-27 09:11:00,
2013-03-27 04:12:00,42.2,28.5,30.23,South,178,4.0,7.0,58,0.00,,SKC,0.00,VWS V14.01,2013-03-27 09:12:00,
2013-03-27 04:13:00,42.2,28.5,30.23,South,175,3.0,8.0,58,0.00,,SKC,0.00,VWS V14.01,2013-03-27 09:13:00,
2013-03-27 04:14:00,42.1,28.4,30.23,South,180,5.0,9.0,58,0.00,,SKC,0.00,VWS V14.01,2013-03-27 09:14:00,
2013-03-27 04:15:00,42.1,28.4,30.23,South,180,5.0,9.0,58,0.00,,SKC,0.00,VWS V14.01,2013-03-27 09:15:00,
2013-03-27 04:16:00,42.0,28.7,30.23,South,183,6.0,7.0,59,0.00,,SKC,0.00,VWS V14.01,2013-03-27 09:16:00,
2013-03-27 04:17:00,42.0,28.7,30.23,South,178,4.0,6.0,59,0.00,,SKC,0.00,VWS V14.01,2013-03-27 09:17:00,
2013-03-27 04:18:00,42.0,28.7,30.23,South,190,10.0,10.0,59,0.00,,SKC,0.00,VWS V14.01,2013-03-27 09:18:00,
2013-03-27 04:19:00,42.0,28.7,30.23,South,178,5.0,10.0,59,0.00,,SKC,0.00,VWS V14.01,2013-03-27 09:19:00,
2013-03-27 04:20:00,42.0,28.7,30.23,South,178,6.0,10.0,59,0.00,,SKC,0.00,VWS V14.01,2013-03-27 09:20:00,
2013-03-27 04:21:00,41.9,28.6,30.23,South,184,3.0,6.0,59,0.00,,SKC,0.00,VWS V14.01,2013-03-27 09:21:00,
2013-03-27 04:22:00,41.8,28.5,30.23,South,187,5.0,7.0,59,0.00,,SKC,0.00,VWS V14.01,2013-03-27 09:22:00,
2013-03-27 04:23:00,41.8,28.5,30.23,South,187,5.0,7.0,59,0.00,,SKC,0.00,VWS V14.01,2013-03-27 09:23:00,
2013-03-27 04:24:00,41.8,28.5,30.23,South,186,7.0,7.0,59,0.00,,SKC,0.00,VWS V14.01,2013-03-27 09:24:00,
2013-03-27 04:25:00,41.8,28.5,30.23,South,186,5.0,5.0,59,0.00,,SKC,0.00,VWS V14.01,2013-03-27 09:25:00,
2013-03-27 04:26:00,41.7,28.4,30.23,South,189,4.0,7.0,59,0.00,,SKC,0.00,VWS V14.01,2013-03-27 09:26:00,
2013-03-27 04:27:00,41.7,28.4,30.23,South,187,5.0,7.0,59,0.00,,SKC,0.00,VWS V14.01,2013-03-27 09:27:00,
2013-03-27 04:28:00,41.7,28.4,30.23,South,186,7.0,7.0,59,0.00,,SKC,0.00,VWS V14.01,2013-03-27 09:28:00,
2013-03-27 04:29:00,41.7,28.9,30.23,SSW,192,9.0,11.0,60,0.00,,SKC,0.00,VWS V14.01,2013-03-27 09:29:00,
2013-03-27 04:30:00,41.7,28.9,30.23,SSW,192,9.0,11.0,60,0.00,,SKC,0.00,VWS V14.01,2013-03-27 09:30:00,
2013-03-27 04:31:00,41.7,28.9,30.22,South,186,5.0,9.0,60,0.00,,SKC,0.00,VWS V14.01,2013-03-27 09:31:00,
2013-03-27 04:32:00,41.7,28.9,30.22,South,190,3.0,7.0,60,0.00,,SKC,0.00,VWS V14.01,2013-03-27 09:32:00,
2013-03-27 04:33:00,41.6,28.8,30.22,South,190,5.0,8.0,60,0.00,,SKC,0.00,VWS V14.01,2013-03-27 09:33:00,
2013-03-27 04:34:00,41.6,28.8,30.22,South,191,6.0,9.0,60,0.00,,SKC,0.00,VWS V14.01,2013-03-27 09:34:00,
2013-03-27 04:35:00,41.6,28.8,30.22,South,191,7.0,9.0,60,0.00,,SKC,0.00,VWS V14.01,2013-03-27 09:35:00,
2013-03-27 04:36:00,41.5,28.7,30.22,South,178,5.0,8.0,60,0.00,,SKC,0.00,VWS V14.01,2013-03-27 09:36:00,
2013-03-27 04:37:00,41.5,28.7,30.22,South,191,7.0,7.0,60,0.00,,SKC,0.00,VWS V14.01,2013-03-27 09:37:00,
2013-03-27 04:38:00,41.5,28.7,30.22,South,180,7.0,7.0,60,0.00,,SKC,0.00,VWS V14.01,2013-03-27 09:38:00,
2013-03-27 04:39:00,41.4,28.6,30.22,South,173,3.0,7.0,60,0.00,,SKC,0.00,VWS V14.01,2013-03-27 09:39:00,
2013-03-27 04:40:00,41.4,28.6,30.22,South,171,4.0,7.0,60,0.00,,SKC,0.00,VWS V14.01,2013-03-27 09:40:00,
2013-03-27 04:41:00,41.4,28.6,30.22,South,176,9.0,10.0,60,0.00,,SKC,0.00,VWS V14.01,2013-03-27 09:41:00,
2013-03-27 04:42:00,41.4,28.6,30.22,South,186,5.0,9.0,60,0.00,,SKC,0.00,VWS V14.01,2013-03-27 09:42:00,
2013-03-27 04:43:00,41.4,28.6,30.22,South,180,7.0,7.0,60,0.00,,SKC,0.00,VWS V14.01,2013-03-27 09:43:00,
2013-03-27 04:44:00,41.4,28.6,30.21,South,173,4.0,11.0,60,0.00,,SKC,0.00,VWS V14.01,2013-03-27 09:44:00,
2013-03-27 04:45:00,41.4,28.6,30.21,South,172,5.0,11.0,60,0.00,,SKC,0.00,VWS V14.01,2013-03-27 09:45:00,
2013-03-27 04:46:00,41.3,28.5,30.22,South,183,5.0,11.0,60,0.00,,SKC,0.00,VWS V14.01,2013-03-27 09:46:00,
2013-03-27 04:47:00,41.3,28.5,30.22,SSE,168,5.0,7.0,60,0.00,,SKC,0.00,VWS V14.01,2013-03-27 09:47:00,
2013-03-27 04:48:00,41.4,28.6,30.22,South,184,6.0,10.0,60,0.00,,SKC,0.00,VWS V14.01,2013-03-27 09:48:00,
2013-03-27 04:49:00,41.4,28.6,30.22,South,190,4.0,11.0,60,0.00,,SKC,0.00,VWS V14.01,2013-03-27 09:49:00,
2013-03-27 04:50:00,41.4,28.6,30.22,South,188,4.0,11.0,60,0.00,,SKC,0.00,VWS V14.01,2013-03-27 09:50:00,
2013-03-27 04:51:00,41.4,28.6,30.22,SSW,195,7.0,10.0,60,0.00,,SKC,0.00,VWS V14.01,2013-03-27 09:51:00,
2013-03-27 04:52:00,41.4,28.6,30.22,South,190,8.0,11.0,60,0.00,,SKC,0.00,VWS V14.01,2013-03-27 09:52:00,
2013-03-27 04:53:00,41.4,28.6,30.21,South,186,6.0,11.0,60,0.00,,SKC,0.00,VWS V14.01,2013-03-27 09:53:00,
2013-03-27 04:54:00,41.5,28.7,30.22,South,188,5.0,9.0,60,0.00,,SKC,0.00,VWS V14.01,2013-03-27 09:54:00,
2013-03-27 04:55:00,41.5,28.7,30.22,South,188,5.0,9.0,60,0.00,,SKC,0.00,VWS V14.01,2013-03-27 09:55:00,
2013-03-27 04:56:00,41.5,28.7,30.22,South,182,4.0,10.0,60,0.00,,SKC,0.00,VWS V14.01,2013-03-27 09:56:00,
2013-03-27 04:57:00,41.5,28.7,30.22,SSW,195,7.0,7.0,60,0.00,,SKC,0.00,VWS V14.01,2013-03-27 09:57:00,
2013-03-27 04:58:00,41.5,28.7,30.22,South,175,4.0,10.0,60,0.00,,SKC,0.00,VWS V14.01,2013-03-27 09:58:00,
2013-03-27 04:59:00,41.5,28.7,30.22,South,182,8.0,13.0,60,0.00,,SKC,0.00,VWS V14.01,2013-03-27 09:59:00,
2013-03-27 05:00:00,41.5,28.7,30.22,South,182,8.0,13.0,60,0.00,,SKC,0.00,VWS V14.01,2013-03-27 10:00:00,